, AK

(GMT )
Aniak

Weather History for PANI - January, 2013

Change the Weather History Date:

Sunday, January 27, 2013

  Actual Average Record
Temperature  
Mean Temperature -25 °F -  
Max Temperature -14 °F 9 °F 53 °F (2014)
Min Temperature -36 °F 0 °F -43 °F (2012)
Degree Days  
Heating Degree Days 90    
Moisture  
Dew Point -29 °F    
Average Humidity 58    
Maximum Humidity 100    
Minimum Humidity 48    
Precipitation  
Precipitation 0.00 in - - ()
Sea Level Pressure  
Sea Level Pressure 30.41 in    
Wind  
Wind Speed 2 mph (NNE)    
Max Wind Speed 10 mph    
Max Gust Speed 20 mph    
Visibility 8 miles    
Events      
Averages and records for this station are not official NWS values.
T = Trace of Precipitation, MM = Missing Value Source: NWS Daily Summary

Daily Weather History Graph

Daily Weather History Graph

Search for Another Location

Airport or City:

Astronomy

Jan. 27, 2013 Rise Set
Actual Time 10:12 AM AKST 5:30 PM AKST
Civil Twilight 9:20 AM AKST 6:22 PM AKST
Nautical Twilight 8:25 AM AKST 7:17 PM AKST
Astronomical Twilight 7:34 AM AKST 8:08 PM AKST
Moon 7:13 PM AKST (1/27) 9:40 AM AKST (1/27)
Length of Visible Light 9h 02m
Length of Day
7h 18m
Full, 100% of the Moon is Illuminated
Jan 27
Full
Feb 3
Last Quarter
Feb 9
New
Feb 17
First Quarter
Feb 25
Full

Hourly Weather History & Observations

Time (AKST) Temp. Windchill Dew Point Humidity Pressure Visibility Wind Dir Wind Speed Gust Speed Precip Events Conditions
12:16 AM -29.2 °F -41.2 °F - N/A% 30.28 in 9.0 mi SE 3.5 mph - N/A   Clear
12:36 AM -29.2 °F - - N/A% 30.29 in 10.0 mi Calm Calm - N/A   Clear
12:56 AM -32.8 °F - - N/A% 30.30 in 8.0 mi Calm Calm - N/A   Clear
1:16 AM -32.8 °F - - N/A% 30.30 in 10.0 mi Calm Calm - N/A   Clear
1:36 AM -32.8 °F - - N/A% 30.31 in 8.0 mi Calm Calm - N/A   Clear
1:56 AM -32.8 °F - - N/A% 30.32 in 5.0 mi Calm Calm - N/A   Clear
2:16 AM -32.8 °F - - N/A% 30.32 in 6.0 mi Calm Calm - N/A   Clear
2:36 AM -34.6 °F - - N/A% 30.33 in 4.0 mi Calm Calm - N/A   Clear
2:56 AM -34.6 °F - - N/A% 30.34 in 3.0 mi Calm Calm - N/A   Clear
3:16 AM -34.6 °F - - N/A% 30.35 in 5.0 mi Calm Calm - N/A   Clear
3:36 AM -34.6 °F - - N/A% 30.35 in 3.0 mi Calm Calm - N/A   Clear
3:56 AM -34.6 °F - - N/A% 30.35 in 3.0 mi Calm Calm - N/A   Clear
4:16 AM -34.6 °F - - N/A% 30.35 in 3.0 mi Calm Calm - N/A   Clear
4:36 AM -34.6 °F - - N/A% 30.36 in 5.0 mi Calm Calm - N/A   Clear
4:56 AM -34.6 °F - - N/A% 30.36 in 5.0 mi Calm Calm - N/A   Clear
5:16 AM -34.6 °F - - N/A% 30.36 in 5.0 mi Calm Calm - N/A   Clear
5:36 AM -36.4 °F - - N/A% 30.36 in 3.0 mi Calm Calm - N/A   Clear
5:56 AM -36.4 °F - - N/A% 30.37 in 3.0 mi Calm Calm - N/A   Clear
6:16 AM -34.6 °F -47.4 °F - N/A% 30.37 in 7.0 mi SE 3.5 mph - N/A   Clear
6:36 AM -36.4 °F - - N/A% 30.37 in 9.0 mi Calm Calm - N/A   Clear
6:56 AM -36.4 °F - - N/A% 30.37 in 10.0 mi Calm Calm - N/A   Clear
7:16 AM -36.4 °F - - N/A% 30.38 in 10.0 mi Calm Calm - N/A   Clear
7:36 AM -34.6 °F - - N/A% 30.38 in 9.0 mi Calm Calm - N/A   Clear
7:56 AM -34.6 °F - - N/A% 30.38 in 9.0 mi Calm Calm - N/A   Clear
8:16 AM -34.6 °F - - N/A% 30.39 in 10.0 mi Calm Calm - N/A   Clear
8:36 AM -34.6 °F - - N/A% 30.39 in 10.0 mi Calm Calm - N/A   Clear
8:56 AM -36.4 °F - - N/A% 30.39 in 10.0 mi Calm Calm - N/A   Clear
9:16 AM -36.4 °F - - N/A% 30.40 in 3.0 mi Calm Calm - N/A   Clear
9:36 AM -36.4 °F - - N/A% 30.41 in 7.0 mi Calm Calm - N/A   Clear
9:56 AM -36.4 °F - - N/A% 30.41 in 5.0 mi Calm Calm - N/A   Clear
10:16 AM -36.4 °F - - N/A% 30.42 in 3.0 mi Calm Calm - N/A   Clear
10:36 AM -36.4 °F - - N/A% 30.42 in 5.0 mi Calm Calm - N/A   Clear
10:56 AM -36.4 °F - - N/A% 30.43 in 2.0 mi Calm Calm - N/A   Clear
11:16 AM -34.6 °F - - N/A% 30.44 in 1.0 mi Calm Calm - N/A   Clear
11:36 AM -34.6 °F - - N/A% 30.44 in 2.5 mi Calm Calm - N/A   Clear
11:56 AM -32.8 °F - - N/A% 30.44 in 3.0 mi Calm Calm - N/A   Clear
12:16 PM -31.0 °F - - N/A% 30.44 in 6.0 mi Calm Calm - N/A   Clear
12:36 PM -29.2 °F - - N/A% 30.45 in 9.0 mi Calm Calm - N/A   Clear
12:56 PM -29.2 °F - - N/A% 30.45 in 10.0 mi Calm Calm - N/A   Clear
1:16 PM -27.4 °F - -27.4 °F 100% 30.47 in 10.0 mi Calm Calm - N/A   Clear
1:36 PM -23.8 °F - - N/A% 30.47 in 10.0 mi Calm Calm - N/A   Clear
1:56 PM -20.2 °F - - N/A% 30.47 in 10.0 mi Calm Calm - N/A   Clear
2:16 PM -18.4 °F - - N/A% 30.47 in 10.0 mi Calm Calm - N/A   Clear
2:36 PM -18.4 °F -28.9 °F - N/A% 30.46 in 10.0 mi North 3.5 mph - N/A   Clear
2:56 PM -18.4 °F - - N/A% 30.47 in 10.0 mi Calm Calm - N/A   Clear
3:16 PM -16.6 °F - - N/A% 30.47 in 10.0 mi Calm Calm - N/A   Clear
3:36 PM -16.6 °F -29.3 °F - N/A% 30.47 in 10.0 mi NW 4.6 mph - N/A   Clear
3:56 PM -16.6 °F - - N/A% 30.47 in 10.0 mi Calm Calm - N/A   Clear
4:16 PM -16.6 °F -29.3 °F - N/A% 30.47 in 10.0 mi South 4.6 mph - N/A   Clear
4:36 PM -16.6 °F - - N/A% 30.46 in 10.0 mi Calm Calm - N/A   Clear
4:56 PM -16.6 °F - - N/A% 30.46 in 10.0 mi Calm Calm - N/A   Clear
5:16 PM -16.6 °F -29.3 °F -29.2 °F 53% 30.47 in 10.0 mi North 4.6 mph - N/A   Clear
5:36 PM -14.8 °F -30.8 °F -29.2 °F 48% 30.47 in 10.0 mi North 6.9 mph - N/A   Clear
5:56 PM -16.6 °F -29.3 °F - N/A% 30.47 in 10.0 mi North 4.6 mph - N/A   Clear
6:16 PM -16.6 °F -29.3 °F -27.4 °F 58% 30.47 in 10.0 mi NNE 4.6 mph - N/A   Clear
6:36 PM -16.6 °F -31.3 °F -29.2 °F 53% 30.47 in 10.0 mi North 5.8 mph - N/A   Clear
6:56 PM -16.6 °F -35.7 °F - N/A% 30.46 in 10.0 mi North 9.2 mph - N/A   Clear
7:16 PM -16.6 °F -32.9 °F - N/A% 30.46 in 10.0 mi NNW 6.9 mph - N/A   Clear
7:36 PM -16.6 °F -29.3 °F -29.2 °F 53% 30.47 in 10.0 mi NNE 4.6 mph - N/A   Clear
7:56 PM -16.6 °F -35.7 °F - N/A% 30.46 in 10.0 mi NNE 9.2 mph - N/A   Clear
8:16 PM -16.6 °F -36.8 °F - N/A% 30.46 in 10.0 mi NE 10.4 mph 19.6 mph N/A   Clear
8:36 PM -16.6 °F -34.4 °F - N/A% 30.45 in 10.0 mi North 8.1 mph - N/A   Clear
8:56 PM -18.4 °F -33.4 °F - N/A% 30.45 in 10.0 mi NNE 5.8 mph - N/A   Clear
9:16 PM -18.4 °F -35.1 °F - N/A% 30.44 in 10.0 mi NE 6.9 mph - N/A   Clear
9:36 PM -16.6 °F -36.8 °F -29.2 °F 53% 30.44 in 10.0 mi NNE 10.4 mph 16.1 mph N/A   Clear
9:56 PM -16.6 °F -29.3 °F - N/A% 30.43 in 10.0 mi East 4.6 mph 16.1 mph N/A   Clear
10:16 PM -16.6 °F -32.9 °F -29.2 °F 53% 30.44 in 10.0 mi ENE 6.9 mph - N/A   Clear
10:36 PM -16.6 °F -29.3 °F -29.2 °F 53% 30.43 in 10.0 mi NE 4.6 mph - N/A   Clear
10:56 PM -16.6 °F -31.3 °F - N/A% 30.42 in 10.0 mi NE 5.8 mph - N/A   Clear
11:16 PM -18.4 °F -31.4 °F - N/A% 30.41 in 10.0 mi North 4.6 mph - N/A   Clear
11:36 PM -16.6 °F -31.3 °F -29.2 °F 53% 30.41 in 10.0 mi ENE 5.8 mph - N/A   Clear
11:56 PM -16.6 °F -31.3 °F - N/A% 30.39 in 10.0 mi East 5.8 mph - N/A   Clear